Temperature
21 21 19 18 17 16 16 16 16 16 16 16 16 15 15 15 15 15 15 15 15 14 14 14 14 14 14 14 14 14 14 15 15 15 15 15 15 15 15 15 14 13 14
22 21 20 18 17 16 16 16 16 16 16 16 15 15 15 15 15 15 15 15 14 14 14 14 14 14 14 14 14 14 14 15 15 15 15 15 15 15 15 15 14 13 13
21 21 20 18 17 16 16 16 16 16 16 15 15 15 15 15 15 15 15 15 14 14 14 14 14 14 14 14 14 14 14 14 14 15 14 13 14 15 14 14 14 13 13
20 20 20 19 18 17 16 16 16 16 16 15 15 15 15 15 15 15 14 14 14 14 14 14 14 15 14 14 14 14 14 14 14 14 13 13 13 14 14 14 13 13 13
19 19 20 19 18 17 16 16 16 16 16 16 15 16 16 15 15 15 14 14 14 14 14 14 15 15 14 14 14 14 14 14 14 13 13 13 13 13 13 13 13 13 13
18 18 20 19 18 17 17 16 16 16 16 16 16 16 16 16 15 15 14 14 14 14 14 14 15 15 14 14 14 13 13 13 13 13 13 13 13 13 13 13 13 13 13
18 17 19 18 18 17 17 16 16 16 16 16 16 16 16 16 15 15 15 14 14 14 14 14 15 15 14 14 14 13 13 13 12 12 12 13 13 13 13 13 13 13 13
18 18 18 18 17 17 17 17 16 16 16 16 16 16 16 16 16 15 15 15 14 14 14 15 15 15 14 14 14 13 13 13 12 12 12 12 13 13 13 13 13 12 12
17 18 18 18 17 17 17 17 17 16 16 16 16 16 16 16 16 16 15 15 15 14 14 15 14 14 14 14 14 13 13 13 12 12 12 12 12 12 13 13 13 12 12
17 17 17 17 17 17 17 17 17 16 16 16 16 16 16 16 16 15 15 15 15 15 14 14 14 14 14 14 13 13 13 13 12 12 12 12 12 12 12 12 12 12 12
17 17 16 16 16 16 16 16 16 16 16 15 15 15 15 15 15 15 15 15 15 15 14 14 14 14 14 13 13 13 13 12 12 11 11 12 12 12 12 12 12 12 12
17 17 17 16 16 16 16 16 16 15 16 16 15 15 15 14 14 14 15 15 15 14 14 14 14 14 13 13 13 13 12 12 11 11 11 11 11 11 12 12 11 11 11
17 17 17 17 16 16 16 16 16 16 15 15 15 15 15 14 14 14 14 15 14 14 14 14 14 13 13 13 13 12 12 11 11 11 10 11 11 11 11 11 11 11 10
16 17 17 17 17 16 16 16 16 16 16 16 16 15 15 14 14 14 14 14 14 14 14 14 13 13 13 13 12 12 12 11 11 10 10 11 10 10 10 10 10 10 10
15 16 17 17 17 17 16 16 16 16 16 16 16 16 15 15 15 14 14 14 14 13 14 14 13 13 13 12 12 12 11 11 11 10 10 10 10 10 10 10 10 9 9
15 16 16 17 17 17 17 17 16 16 16 15 16 16 16 15 15 15 14 14 14 14 14 13 13 13 12 12 12 12 11 11 10 10 9 10 10 10 10 9 9 9 9
16 16 16 16 17 17 17 17 17 16 16 16 16 16 16 15 15 15 14 14 14 14 13 13 13 13 12 12 12 12 11 11 11 10 9 9 9 10 9 9 9 9 9
16 16 16 16 17 17 17 17 17 17 16 16 16 16 16 15 15 15 14 14 14 14 13 13 13 13 12 12 12 12 12 12 11 10 10 10 9 9 9 9 9 9 9
16 16 17 16 17 17 17 17 17 17 16 16 16 16 16 16 15 15 15 14 14 14 13 13 13 12 12 12 11 11 11 11 11 11 10 10 10 9 9 9 9 9 9
16 16 16 16 17 16 16 16 16 16 17 17 17 17 17 16 16 15 15 14 14 13 13 13 13 12 12 12 11 11 11 11 11 11 10 10 10 10 9 9 9 9 9
16 16 16 16 16 16 16 15 16 16 17 17 17 17 17 16 16 15 15 15 14 14 14 13 12 12 12 11 11 10 11 11 11 11 10 10 10 10 9 9 9 9 9
15 15 16 16 16 16 16 15 15 16 16 16 17 17 17 17 17 16 16 15 15 14 13 13 12 12 12 12 11 10 9 10 11 11 11 11 10 10 10 9 9 9 8
14 14 15 15 15 15 15 15 15 15 14 14 15 16 16 17 16 16 16 15 14 14 13 13 13 13 12 12 11 10 10 11 10 11 11 11 10 10 9 9 9 8 8
13 13 14 14 15 15 15 15 14 14 13 14 14 15 15 15 15 15 15 14 14 13 13 13 13 13 12 11 11 11 11 11 11 11 11 11 10 10 9 9 9 8 8
12 13 13 13 14 14 14 14 14 14 13 13 13 13 14 14 14 14 14 14 13 13 13 13 13 12 12 11 11 11 11 10 11 11 11 11 11 10 9 9 8 8 7
12 12 12 13 13 13 13 13 13 13 13 13 13 13 13 13 13 13 13 13 13 12 12 12 12 12 12 11 11 11 11 11 10 10 10 10 10 10 9 8 8 7 7
Wind_Speed
11 16 18 17 15 16 17 17 17 17 16 15 14 13 11 8 6 5 4 5 6 8 11 14 14 14 14 13 13 13 13 13 13 12 12 11 10 10 9 7 3 8 7
14 18 19 17 16 16 16 17 17 17 16 15 13 12 9 7 6 4 5 7 8 10 12 14 14 13 13 12 12 12 12 12 11 11 9 10 9 8 8 6 6 7 6
16 18 19 17 16 15 16 18 18 17 15 14 13 11 9 7 6 6 7 9 10 12 14 14 14 13 13 12 11 11 11 11 10 7 3 7 8 7 6 4 4 5 4
16 17 18 18 16 16 17 18 18 16 15 14 12 11 9 8 8 8 10 11 12 14 14 14 13 13 12 11 11 10 10 9 7 2 5 7 7 6 4 3 3 3 3
15 15 17 18 16 16 17 18 17 16 15 13 12 10 9 8 9 10 12 13 14 14 14 13 13 12 11 10 9 9 9 8 5 3 7 6 6 6 5 5 5 4 3
14 15 17 16 16 16 17 17 16 16 15 13 12 10 9 9 10 11 12 13 13 13 12 12 11 10 9 9 8 8 8 6 3 7 6 6 7 8 9 10 10 9 9
14 14 16 16 15 15 15 15 15 15 14 13 12 11 10 9 10 10 10 11 11 11 11 11 10 9 8 7 7 7 7 3 4 6 6 8 10 12 14 15 15 15 15
13 13 15 15 14 14 14 14 14 15 14 14 12 11 10 10 10 10 9 9 9 10 10 9 9 8 7 6 6 6 6 3 4 6 7 10 12 13 15 15 15 15 15
12 13 13 14 14 13 12 12 13 15 15 14 13 11 11 10 10 10 9 8 8 8 8 8 8 7 6 5 5 6 6 3 3 5 6 9 12 14 14 14 14 14 13
11 11 12 13 13 13 12 12 12 14 15 15 13 12 12 11 10 10 9 8 8 8 8 8 8 7 6 6 6 7 7 5 4 5 5 9 11 12 11 11 11 12 12
9 10 11 11 11 11 11 11 13 13 15 15 14 14 13 11 11 10 9 7 7 7 7 8 9 8 8 7 7 8 7 4 4 3 5 10 10 10 10 9 10 10 10
10 10 10 10 11 10 9 10 11 13 14 15 13 14 12 10 9 8 10 7 7 7 8 9 10 8 6 6 7 7 5 4 4 4 6 10 9 9 8 8 8 9 9
10 10 10 10 10 10 9 9 9 10 12 14 14 14 12 10 9 9 9 10 10 10 9 10 9 6 5 4 5 5 4 5 4 4 8 11 9 8 8 7 7 7 7
10 11 11 11 10 11 10 9 9 9 10 11 13 15 13 10 9 9 9 9 10 9 8 8 6 6 6 6 6 6 6 5 5 5 8 11 9 8 7 7 6 6 6
11 11 12 12 12 11 11 9 10 10 11 13 13 15 15 11 10 10 9 10 10 9 9 8 8 7 7 6 6 6 7 7 7 6 7 10 10 9 8 6 6 5 5
12 12 12 14 14 13 11 11 10 11 12 13 14 16 17 14 12 11 10 10 11 11 10 10 9 8 7 6 7 7 7 7 7 7 7 10 10 9 8 7 6 5 5
12 12 13 14 15 15 15 14 12 12 13 13 14 16 18 17 15 13 11 10 12 13 12 10 10 8 6 6 7 7 7 8 8 9 8 8 9 9 9 8 7 6 5
11 12 13 12 14 16 15 13 12 13 14 13 15 16 19 20 18 15 12 12 13 13 12 10 9 8 8 7 7 6 7 7 9 9 9 9 8 9 10 9 8 7 5
11 11 12 13 15 16 16 13 13 13 13 14 15 15 18 21 21 18 13 13 15 13 11 11 10 10 9 8 7 6 6 7 8 9 10 11 10 9 9 10 9 8 6
9 10 11 12 14 15 13 12 11 12 13 14 14 16 18 18 21 19 14 15 15 12 12 12 12 11 9 8 7 6 7 7 7 9 10 11 11 12 11 11 10 9 7
5 7 9 10 11 11 11 12 13 14 14 13 14 18 19 19 19 18 14 15 15 15 15 16 13 13 10 9 6 6 6 8 9 9 10 10 12 13 13 12 11 10 9
5 6 7 8 9 11 11 11 12 13 12 14 13 15 19 20 20 17 18 16 16 15 17 17 16 12 10 10 9 6 6 8 9 11 10 10 11 12 13 14 12 11 9
5 5 6 7 8 9 10 10 10 11 11 12 14 15 18 20 20 19 18 17 16 16 16 18 19 18 13 13 12 9 6 9 6 8 12 11 12 11 11 13 13 12 10
7 6 6 6 6 7 8 9 12 13 14 16 15 14 16 18 18 19 18 17 17 15 17 17 19 17 17 13 11 12 9 5 6 6 7 10 11 11 11 9 11 11 10
7 7 6 6 5 5 6 8 10 12 13 13 14 16 16 15 17 17 18 17 17 16 17 17 18 19 17 16 12 9 11 6 7 6 5 6 8 9 9 9 9 10 10
8 8 8 8 7 6 5 6 8 11 13 14 15 14 14 13 14 17 17 17 17 16 17 18 17 19 18 18 15 11 9 8 10 9 8 5 5 6 7 6 7 8 8
Wind_Direction
156 155 153 154 153 153 151 149 145 140 137 133 130 128 126 123 122 127 135 139 137 131 117 109 101 96 93 91 89 87 85 83 81 77 75 77 83 87 85 77 76 92 78
151 152 149 152 153 154 154 150 143 138 136 134 131 128 125 122 122 126 132 140 138 127 117 109 102 100 98 97 96 94 92 88 85 81 84 91 83 84 85 71 32 73 76
150 150 153 151 154 155 153 146 141 139 137 134 131 127 124 119 113 111 121 128 130 121 113 106 104 102 101 100 99 97 95 91 89 92 122 96 93 88 89 79 73 83 81
151 152 156 151 156 155 151 146 144 142 140 137 133 128 125 121 112 108 108 112 115 112 108 106 106 106 105 103 100 99 97 95 94 133 93 79 86 87 95 92 85 91 86
153 154 149 153 156 155 151 150 149 147 144 140 135 131 130 127 117 109 102 104 106 105 105 107 109 110 107 102 100 100 100 100 111 95 80 75 75 78 84 81 80 84 88
156 156 152 156 155 153 152 153 153 151 148 144 140 136 136 135 124 112 103 103 105 106 108 109 111 112 109 104 101 101 104 114 144 83 79 72 74 85 84 80 77 75 77
158 157 156 157 155 155 157 159 160 158 152 149 146 144 144 141 131 122 114 110 111 113 114 116 117 115 112 107 106 108 113 111 84 86 79 75 77 84 84 79 76 73 71
160 160 158 156 155 158 162 165 168 164 158 154 153 151 150 146 140 133 131 128 126 125 125 125 124 121 116 113 114 119 125 144 107 91 84 82 79 83 81 77 73 70 67
165 166 165 168 166 164 168 173 175 169 163 159 158 156 150 145 146 147 146 145 140 137 134 132 129 125 121 121 124 126 130 153 129 99 92 88 86 83 79 77 74 71 68
175 175 173 176 178 180 183 183 183 174 168 164 163 158 150 148 153 156 163 156 152 145 140 136 130 126 122 122 129 132 141 174 132 127 109 97 91 86 82 78 77 75 72
187 186 183 183 184 187 189 183 190 183 177 172 172 165 166 174 172 173 171 160 164 158 152 145 134 129 126 122 127 141 166 179 152 140 115 105 101 94 88 85 82 80 77
192 195 194 193 192 193 191 191 197 195 190 193 190 183 191 188 183 179 163 180 179 168 161 150 140 147 167 151 144 170 182 178 169 158 125 121 115 106 99 94 91 88 84
199 201 206 206 203 201 198 200 199 200 199 203 201 195 197 193 187 190 183 187 191 186 181 158 171 183 185 172 176 184 181 186 187 167 141 132 128 121 115 108 101 95 89
209 210 211 213 213 212 212 208 208 206 203 204 205 203 201 200 200 198 199 195 196 197 194 194 201 187 189 187 191 186 184 195 193 179 140 139 139 137 132 124 115 106 95
219 217 217 216 217 216 218 221 219 216 212 210 208 209 208 206 206 205 207 204 206 204 200 205 206 197 197 193 195 197 196 198 192 182 153 144 143 147 147 143 134 122 108
226 223 218 217 217 218 218 221 223 223 220 221 215 214 213 214 213 210 212 210 210 208 208 208 210 203 202 200 199 202 204 199 198 193 175 155 148 152 158 158 149 136 122
238 232 225 221 219 219 221 223 226 226 225 223 222 219 216 218 217 215 218 214 212 210 209 210 209 207 204 200 203 203 204 204 201 197 191 181 168 160 167 169 161 151 138
248 241 235 226 225 224 223 223 223 226 227 228 226 224 221 220 218 218 220 218 213 208 205 203 202 202 202 204 204 199 202 202 207 203 196 194 188 180 175 173 172 164 156
254 248 242 234 232 230 228 225 224 226 228 231 230 228 224 222 219 218 220 218 212 207 206 204 205 207 207 205 205 200 204 203 205 204 206 200 196 193 187 169 170 166 168
262 256 250 243 239 238 234 230 227 228 230 231 231 231 229 225 221 221 221 219 211 209 208 206 204 206 210 198 194 201 209 210 210 209 209 203 199 198 199 189 185 178 177
271 260 254 250 245 241 235 229 227 228 229 230 230 232 231 229 224 221 222 219 212 211 211 208 204 203 202 187 184 202 215 220 220 213 212 209 204 202 202 201 203 197 190
295 283 270 260 255 247 241 238 237 236 235 233 231 232 231 230 226 221 222 220 214 214 213 210 204 204 198 190 196 200 217 214 220 218 213 213 210 203 207 207 207 205 204
347 323 298 283 272 262 256 248 245 242 241 238 235 233 230 228 227 223 223 224 218 216 215 211 206 205 203 201 205 201 208 222 195 198 214 212 211 207 208 208 208 205 204
1 346 327 310 290 277 265 250 243 238 238 238 238 239 237 231 228 226 225 225 223 219 220 215 211 213 210 203 208 224 235 241 192 184 199 212 213 213 210 202 202 198 197
359 352 345 337 324 307 280 259 252 248 249 251 250 248 245 238 231 227 224 225 225 222 222 219 214 214 214 210 202 203 216 225 231 214 196 189 204 212 208 202 196 192 189
358 353 347 341 338 333 315 285 261 257 255 254 252 251 249 245 237 231 225 225 225 224 223 223 218 216 217 218 211 204 201 202 210 215 216 188 189 189 194 194 194 189 183
Height
1530 1532 1533 1535 1538 1540 1542 1544 1546 1547 1549 1550 1550 1551 1551 1551 1550 1550 1550 1549 1550 1550 1551 1552 1552 1553 1553 1553 1553 1553 1553 1553 1553 1553 1553 1553 1552 1552 1551 1551 1551 1552 1551
1530 1532 1534 1536 1538 1540 1543 1545 1547 1548 1549 1550 1550 1551 1551 1551 1550 1550 1550 1550 1551 1552 1553 1553 1554 1554 1553 1553 1553 1553 1553 1553 1554 1554 1554 1554 1553 1553 1553 1552 1552 1552 1552
1529 1532 1534 1536 1539 1541 1543 1545 1547 1548 1549 1550 1551 1551 1551 1551 1551 1551 1551 1551 1552 1553 1554 1555 1555 1555 1554 1554 1554 1554 1554 1554 1554 1555 1555 1556 1555 1554 1554 1554 1553 1553 1553
1530 1533 1535 1537 1539 1541 1544 1545 1547 1548 1549 1550 1551 1551 1551 1551 1552 1552 1553 1553 1554 1554 1555 1556 1556 1556 1555 1555 1555 1555 1555 1556 1556 1556 1558 1558 1557 1556 1555 1555 1555 1554 1554
1531 1534 1535 1537 1540 1542 1544 1545 1547 1548 1549 1550 1551 1551 1551 1552 1552 1553 1554 1554 1555 1556 1557 1557 1557 1557 1557 1557 1557 1557 1557 1557 1558 1558 1558 1558 1558 1557 1557 1556 1556 1556 1556
1532 1535 1536 1538 1540 1542 1544 1546 1547 1548 1549 1550 1551 1551 1552 1552 1553 1554 1555 1555 1556 1557 1558 1558 1558 1558 1558 1558 1558 1559 1559 1559 1559 1560 1560 1560 1559 1558 1558 1557 1557 1557 1557
1533 1535 1536 1538 1540 1543 1544 1546 1547 1548 1549 1550 1551 1552 1552 1553 1553 1554 1555 1556 1557 1558 1558 1559 1559 1559 1560 1560 1560 1560 1560 1560 1561 1561 1561 1560 1560 1559 1559 1559 1558 1558 1558
1534 1535 1537 1538 1541 1543 1545 1546 1547 1548 1549 1550 1551 1552 1553 1553 1554 1555 1556 1557 1558 1558 1559 1559 1560 1560 1561 1561 1561 1561 1561 1561 1562 1562 1562 1561 1560 1560 1560 1560 1559 1559 1559
1534 1536 1537 1539 1541 1543 1544 1546 1548 1549 1550 1551 1551 1552 1553 1554 1554 1555 1556 1557 1558 1559 1559 1560 1560 1561 1561 1561 1561 1562 1562 1562 1564 1563 1563 1562 1561 1560 1560 1560 1559 1559 1558
1533 1535 1537 1539 1541 1542 1544 1546 1547 1549 1550 1551 1552 1552 1553 1554 1555 1555 1556 1557 1558 1559 1559 1560 1560 1561 1561 1561 1561 1562 1562 1562 1564 1564 1564 1562 1561 1561 1560 1559 1558 1557 1557
1532 1534 1536 1538 1540 1542 1544 1545 1546 1548 1549 1550 1551 1552 1553 1554 1555 1555 1556 1557 1558 1558 1559 1560 1560 1561 1561 1561 1561 1561 1562 1563 1564 1564 1563 1561 1561 1560 1559 1558 1557 1556 1555
1531 1533 1535 1537 1539 1541 1542 1544 1546 1547 1548 1549 1551 1551 1552 1554 1555 1555 1555 1556 1557 1558 1559 1559 1560 1560 1560 1561 1560 1561 1562 1562 1563 1563 1561 1560 1560 1559 1558 1557 1556 1555 1554
1530 1531 1533 1535 1537 1539 1541 1543 1544 1546 1547 1548 1549 1550 1551 1552 1553 1554 1554 1555 1556 1557 1558 1558 1559 1559 1559 1560 1560 1560 1561 1561 1562 1562 1560 1559 1558 1558 1557 1556 1555 1554 1554
1528 1530 1532 1533 1535 1537 1539 1541 1542 1543 1544 1545 1546 1548 1549 1550 1551 1552 1553 1554 1555 1556 1556 1557 1558 1558 1558 1558 1558 1558 1558 1559 1560 1560 1558 1557 1557 1556 1556 1555 1554 1554 1553
1527 1528 1530 1531 1533 1535 1536 1538 1539 1540 1542 1543 1544 1545 1546 1547 1548 1549 1550 1551 1552 1553 1554 1555 1555 1556 1556 1556 1556 1556 1557 1557 1558 1558 1556 1555 1555 1555 1554 1554 1554 1553 1553
1526 1527 1528 1529 1531 1532 1533 1534 1536 1537 1538 1539 1540 1541 1542 1543 1544 1545 1546 1547 1549 1549 1551 1552 1553 1553 1553 1554 1554 1554 1555 1555 1555 1555 1555 1553 1553 1553 1553 1553 1552 1552 1552
1523 1524 1525 1526 1527 1529 1530 1531 1532 1533 1534 1535 1536 1537 1538 1539 1540 1541 1542 1543 1544 1546 1547 1548 1549 1550 1550 1551 1551 1551 1552 1552 1552 1552 1552 1552 1551 1551 1551 1551 1551 1551 1551
1519 1520 1522 1522 1523 1524 1525 1527 1528 1529 1530 1530 1531 1532 1533 1534 1535 1536 1537 1538 1540 1541 1542 1543 1544 1546 1546 1547 1548 1548 1548 1548 1549 1549 1549 1549 1549 1549 1548 1548 1549 1549 1549
1514 1516 1517 1518 1519 1520 1521 1522 1522 1523 1524 1525 1526 1527 1528 1529 1530 1531 1532 1533 1534 1535 1537 1538 1539 1541 1542 1543 1544 1544 1545 1545 1545 1545 1545 1545 1545 1546 1546 1545 1546 1546 1546
1509 1510 1511 1512 1514 1515 1516 1516 1517 1517 1518 1519 1520 1521 1522 1523 1524 1525 1526 1527 1528 1529 1531 1532 1534 1536 1537 1539 1540 1540 1541 1541 1541 1541 1541 1541 1541 1542 1543 1543 1543 1543 1543
1503 1504 1505 1506 1508 1509 1510 1510 1510 1510 1511 1512 1513 1514 1515 1516 1517 1518 1519 1521 1521 1522 1524 1526 1528 1529 1531 1533 1535 1535 1535 1536 1536 1536 1536 1537 1537 1537 1538 1539 1539 1539 1539
1498 1498 1499 1500 1501 1502 1503 1503 1504 1505 1505 1506 1506 1507 1508 1509 1510 1511 1512 1513 1514 1515 1517 1518 1520 1522 1524 1526 1529 1530 1531 1531 1529 1530 1530 1531 1532 1532 1533 1534 1534 1535 1535
1493 1493 1493 1494 1494 1495 1496 1497 1497 1497 1497 1498 1498 1499 1500 1501 1502 1503 1504 1505 1506 1508 1509 1510 1512 1514 1516 1518 1521 1524 1524 1524 1523 1523 1523 1524 1525 1526 1527 1528 1529 1530 1530
1490 1490 1489 1489 1489 1489 1489 1489 1490 1490 1490 1490 1492 1492 1493 1494 1494 1495 1496 1497 1499 1500 1501 1503 1505 1506 1509 1510 1512 1514 1517 1517 1517 1516 1517 1518 1519 1520 1521 1522 1523 1524 1525
1488 1487 1486 1485 1485 1484 1484 1484 1484 1483 1484 1485 1485 1485 1486 1486 1486 1487 1488 1489 1490 1491 1493 1495 1496 1498 1500 1502 1502 1505 1507 1509 1510 1512 1511 1511 1512 1513 1514 1515 1516 1517 1518
1486 1485 1483 1482 1481 1480 1479 1478 1478 1477 1478 1478 1478 1478 1478 1478 1478 1479 1480 1480 1481 1483 1484 1486 1488 1489 1491 1494 1495 1496 1498 1499 1500 1503 1505 1504 1505 1506 1507 1508 1510 1510 1512